sat.trackr.live / text

‹ back to catalog

STARLINK-36200

NORAD 67101 · 2025-298AC

PAYLOAD ACTIVE UNKNOWN

§ Identity

Operator
Country
US
Launch date
2025-12-14
Launch site
AFWTR
Launch vehicle
Mass (kg)
RCS (m²)

Purposes: comms

External: N2YO · Heavens-Above · Gunter

§ Orbital elements

Epoch: 2026-05-25T03:07:28.435872Z

Period
96.11 min
Inclination
70.0012°
Eccentricity
0.0003918
Mean motion
14.98337332 rev/d
Perigee alt
569.3 km
Apogee alt
574.8 km
Semi-major
6,950.2 km
B*
2.0733e-4
RAAN
181.8722°
Arg perigee
265.4155°
Mean anomaly
94.6557°
Rev number
2,466

§ Raw data

STARLINK-362001 67101U 25298AC  26145.13019023  .00002382  00000+0  20733-3 0  99902 67101  70.0012 181.8722 0003918 265.4155  94.6557 14.98337332 24662

JSON: /api/v1/satellites/67101 · /tle

For live sub-satellite position, see the globe view (requires WebGL).

§ Visibility from observer

Set your observer location to see the next 7 days of passes ≥ 10°. The values pass through the URL so the page stays shareable.

No JS? Fill the form by hand. The geolocation button needs JavaScript.